Probability
52 45 65 45 32 35 32 45 42 52 39 32 19 16 16 16 16 23 39 42 32 42 39 32 32 23 23 23 23 26 32 23 29 32 29 16 19 19 19 19 19 26 23
58 55 68 61 48 48 45 52 45 52 45 42 32 23 23 19 13 29 29 39 29 32 45 39 35 32 26 26 23 26 26 29 32 29 29 23 23 13 13 16 19 23 23
74 71 61 68 55 52 58 65 42 45 52 45 32 29 29 35 29 29 23 29 29 39 42 39 39 35 29 32 26 19 23 26 29 26 26 26 29 19 16 10 10 13 16
74 81 68 65 74 65 61 71 55 52 52 48 48 48 39 61 35 29 29 23 29 19 32 39 35 42 35 35 26 29 26 26 23 23 26 26 19 23 16 13 10 10 13
77 74 74 77 81 61 55 52 65 48 45 58 45 48 32 35 52 26 26 13 32 32 29 42 39 35 29 39 29 26 26 23 19 19 23 19 16 23 16 16 13 10 6
77 77 74 74 74 68 68 65 68 71 68 68 16 23 32 29 39 35 23 26 26 26 23 26 35 23 26 32 35 32 26 19 19 16 16 19 23 23 16 13 6 6 6
71 74 55 77 77 65 61 58 61 55 52 52 45 32 29 23 26 29 35 26 26 26 23 32 39 39 32 16 23 29 23 16 16 19 16 19 19 19 23 19 10 6 3
81 61 77 65 77 81 74 81 77 68 48 48 58 55 48 48 39 13 23 29 23 23 19 13 26 39 32 29 6 10 19 19 16 13 19 16 16 23 23 19 16 10 6
71 81 77 77 81 74 65 74 77 77 61 61 55 52 39 42 42 26 23 13 19 23 19 23 19 29 29 29 23 6 10 16 13 13 19 19 19 16 16 10 10 3 6
68 61 71 68 74 68 74 68 61 71 81 68 71 74 52 48 35 29 26 16 23 23 23 16 16 23 29 29 29 6 3 6 3 10 13 13 10 10 10 10 6 6 6
65 58 68 68 77 71 68 74 81 81 77 71 68 68 65 58 32 23 16 16 16 23 23 23 23 23 26 32 32 10 3 3 3 3 10 10 6 6 6 3 3 3 6
61 52 55 61 71 68 71 77 77 68 71 71 68 65 58 52 42 26 23 26 19 13 16 23 26 16 23 26 10 3 3 0 0 3 3 3 3 3 6 6 0 0 0
52 58 45 65 65 61 58 58 61 61 61 58 65 58 48 48 42 42 35 26 16 13 13 13 16 29 16 19 19 3 3 0 0 0 0 0 3 3 3 3 3 0 0
45 55 55 58 52 52 48 55 55 52 55 52 48 55 55 42 39 32 29 26 23 16 6 13 13 16 13 10 10 0 3 0 0 0 0 0 0 0 0 0 0 0 0
42 45 48 45 42 42 42 45 52 45 42 35 39 39 35 39 39 29 32 35 23 19 16 13 19 13 6 10 3 3 10 0 0 0 0 0 0 0 0 0 0 0 0
45 45 39 32 39 35 39 35 35 45 45 42 39 35 39 32 39 32 35 26 29 26 19 13 13 10 6 6 6 10 10 3 0 0 0 0 0 0 0 0 0 0 0
42 39 35 35 32 32 29 29 29 32 35 35 35 35 32 35 32 32 32 29 29 23 19 16 13 3 10 10 6 10 6 6 3 0 0 0 0 0 0 0 0 0 0
35 35 32 29 29 29 32 26 26 26 26 32 32 29 29 26 26 23 23 23 19 19 16 16 10 3 6 6 6 6 6 3 3 3 0 0 0 0 0 0 0 0 0
35 32 32 29 29 26 26 23 23 23 23 23 26 23 26 23 26 26 19 19 13 10 16 16 10 3 3 3 3 3 6 6 3 3 3 0 0 0 0 0 0 0 0
39 35 32 26 26 26 23 23 23 23 23 26 23 23 19 19 23 19 19 19 23 16 13 13 10 10 3 3 3 3 3 3 3 3 3 3 3 0 0 0 0 0 0
35 35 32 29 23 23 19 19 19 19 23 19 19 19 19 16 10 13 10 19 19 16 13 13 6 10 3 3 3 3 3 3 3 3 6 3 3 3 3 0 0 0 0
32 29 29 26 23 19 19 19 19 19 19 19 19 19 19 13 10 6 6 6 10 13 13 10 6 10 10 3 3 3 3 3 3 6 3 3 3 3 3 3 3 3 0
29 29 26 26 26 19 16 13 6 19 19 19 19 16 13 10 13 13 6 3 0 0 6 16 10 6 6 6 6 3 3 3 3 6 6 6 3 3 3 3 3 0 0
29 29 26 26 26 19 16 13 6 16 19 19 16 16 16 13 13 13 13 13 13 10 6 10 6 6 6 6 6 6 6 3 3 3 3 6 6 3 3 3 0 0 0
32 29 26 26 26 16 16 13 0 19 23 13 13 13 13 13 6 3 10 13 10 6 6 6 6 6 6 6 6 6 3 3 3 3 3 3 3 3 3 3 0 0 0
29 26 23 23 23 16 13 3 0 19 16 13 13 6 6 6 3 3 10 6 6 6 6 6 3 0 3 3 0 3 3 3 3 3 3 3 3 3 3 3 3 0 0
Height
5904 5904 5904 5904 5904 5905 5905 5905 5905 5905 5906 5906 5906 5906 5906 5905 5905 5905 5904 5904 5903 5903 5902 5901 5901 5901 5900 5899 5899 5898 5898 5897 5897 5896 5896 5896 5895 5895 5894 5894 5894 5893 5893
5904 5905 5905 5905 5905 5905 5905 5905 5906 5906 5906 5906 5906 5906 5905 5905 5905 5904 5904 5903 5903 5902 5902 5901 5900 5900 5899 5898 5898 5897 5897 5896 5895 5895 5894 5894 5894 5893 5893 5892 5892 5891 5891
5905 5905 5905 5905 5905 5905 5905 5905 5906 5906 5906 5906 5905 5905 5905 5905 5904 5904 5903 5903 5902 5902 5901 5901 5900 5899 5898 5898 5897 5896 5895 5895 5894 5893 5892 5892 5891 5891 5890 5890 5890 5889 5889
5906 5906 5906 5905 5905 5905 5905 5905 5905 5905 5905 5905 5905 5905 5904 5904 5904 5903 5903 5902 5901 5901 5900 5899 5899 5898 5897 5896 5895 5894 5893 5893 5892 5891 5890 5889 5889 5888 5888 5887 5887 5887 5886
5907 5906 5906 5906 5905 5905 5905 5905 5905 5905 5905 5904 5904 5904 5903 5903 5902 5902 5902 5901 5900 5899 5899 5898 5897 5897 5896 5895 5894 5892 5891 5890 5889 5889 5888 5887 5886 5885 5885 5884 5884 5884 5883
5907 5907 5906 5906 5905 5905 5905 5904 5904 5904 5904 5903 5903 5903 5902 5901 5901 5900 5900 5899 5899 5898 5897 5896 5896 5895 5894 5893 5892 5890 5889 5888 5887 5886 5885 5884 5883 5882 5882 5881 5880 5880 5879
5907 5906 5906 5906 5905 5904 5904 5904 5903 5903 5902 5902 5902 5901 5901 5900 5899 5899 5898 5898 5897 5896 5895 5895 5894 5893 5892 5890 5889 5888 5887 5885 5884 5883 5882 5881 5880 5879 5878 5877 5877 5876 5875
5906 5906 5905 5905 5904 5904 5903 5903 5902 5902 5901 5901 5900 5900 5899 5899 5898 5897 5896 5896 5895 5894 5893 5892 5891 5890 5889 5888 5887 5886 5884 5883 5882 5880 5879 5878 5876 5875 5874 5873 5872 5872 5871
5906 5905 5904 5904 5903 5902 5902 5901 5901 5901 5900 5899 5899 5898 5898 5897 5896 5895 5894 5893 5893 5892 5891 5890 5888 5887 5886 5885 5884 5883 5881 5880 5879 5877 5876 5874 5873 5871 5870 5869 5868 5867 5866
5905 5904 5903 5903 5902 5901 5901 5900 5900 5899 5898 5897 5897 5896 5896 5895 5894 5893 5892 5891 5890 5889 5887 5886 5885 5883 5882 5881 5880 5879 5878 5877 5875 5874 5872 5870 5869 5867 5866 5865 5864 5863 5862
5904 5903 5902 5902 5901 5900 5899 5899 5898 5897 5896 5895 5895 5894 5893 5892 5891 5890 5889 5888 5886 5885 5884 5883 5881 5880 5879 5878 5876 5875 5874 5873 5872 5870 5868 5867 5865 5863 5862 5860 5859 5858 5856
5903 5902 5901 5900 5899 5898 5897 5896 5896 5895 5894 5893 5892 5891 5890 5889 5888 5887 5885 5884 5883 5881 5880 5879 5877 5876 5875 5874 5873 5872 5870 5869 5867 5866 5864 5862 5861 5859 5857 5855 5854 5852 5851
5902 5900 5899 5898 5897 5896 5895 5894 5893 5892 5891 5890 5889 5888 5887 5886 5885 5883 5882 5881 5879 5878 5876 5875 5873 5872 5871 5869 5869 5867 5866 5864 5862 5861 5859 5858 5856 5854 5852 5850 5849 5847 5845
5900 5899 5897 5896 5895 5894 5893 5892 5891 5890 5889 5888 5886 5885 5884 5883 5881 5880 5879 5877 5875 5874 5872 5870 5869 5867 5866 5865 5864 5862 5861 5859 5857 5856 5854 5852 5850 5849 5847 5845 5843 5842 5840
5899 5897 5895 5894 5892 5891 5890 5889 5888 5887 5886 5884 5883 5882 5880 5879 5878 5876 5875 5873 5872 5870 5868 5866 5864 5863 5861 5860 5858 5857 5855 5854 5852 5851 5849 5847 5845 5843 5841 5839 5837 5835 5833
5897 5895 5893 5892 5890 5888 5887 5886 5885 5884 5882 5881 5880 5878 5877 5875 5874 5872 5871 5869 5867 5865 5863 5861 5860 5858 5856 5855 5853 5852 5850 5849 5847 5845 5843 5841 5839 5837 5835 5833 5831 5829 5826
5896 5893 5891 5889 5887 5885 5884 5883 5882 5880 5879 5877 5876 5875 5873 5872 5871 5869 5867 5865 5863 5861 5859 5857 5855 5854 5852 5850 5848 5847 5845 5843 5842 5840 5838 5836 5833 5831 5828 5826 5824 5822 5819
5894 5892 5890 5887 5885 5883 5882 5880 5879 5878 5876 5875 5873 5872 5870 5869 5867 5865 5863 5862 5860 5858 5856 5854 5852 5850 5847 5845 5844 5842 5840 5838 5836 5834 5831 5829 5827 5824 5822 5819 5817 5814 5812
5893 5890 5888 5886 5884 5882 5880 5878 5876 5875 5874 5872 5870 5869 5867 5865 5863 5861 5859 5857 5855 5853 5851 5849 5847 5845 5843 5840 5838 5836 5834 5832 5829 5827 5825 5822 5820 5817 5815 5812 5810 5807 5805
5890 5888 5886 5884 5882 5880 5878 5876 5874 5872 5870 5869 5867 5865 5863 5861 5859 5857 5855 5853 5851 5849 5847 5844 5842 5840 5837 5835 5833 5831 5828 5826 5823 5821 5818 5816 5813 5811 5808 5806 5803 5801 5798
5888 5886 5884 5882 5879 5877 5875 5873 5871 5869 5867 5865 5863 5861 5859 5857 5855 5853 5851 5849 5846 5844 5842 5839 5837 5835 5832 5830 5828 5825 5823 5820 5818 5815 5812 5809 5807 5804 5801 5799 5796 5793 5790
5885 5883 5881 5879 5877 5874 5872 5870 5868 5866 5864 5861 5859 5857 5855 5853 5851 5849 5846 5844 5841 5839 5837 5835 5832 5830 5827 5825 5822 5820 5817 5815 5812 5809 5806 5803 5800 5797 5794 5792 5789 5785 5782
5883 5880 5878 5876 5873 5871 5869 5867 5865 5862 5860 5857 5855 5853 5851 5848 5846 5844 5841 5839 5837 5834 5833 5830 5828 5825 5823 5820 5817 5814 5811 5808 5806 5803 5800 5796 5793 5790 5787 5783 5780 5777 5774
5879 5877 5875 5872 5870 5868 5866 5864 5861 5858 5856 5853 5851 5848 5846 5844 5841 5839 5837 5834 5832 5829 5827 5825 5823 5820 5817 5814 5811 5809 5805 5802 5799 5796 5793 5790 5786 5783 5779 5776 5772 5769 5766
5876 5873 5871 5869 5866 5864 5862 5860 5857 5855 5852 5849 5847 5844 5841 5839 5837 5834 5832 5829 5827 5824 5822 5819 5817 5814 5811 5809 5805 5802 5799 5796 5793 5789 5786 5782 5779 5775 5771 5768 5764 5761 5758
5872 5870 5867 5865 5862 5860 5857 5855 5853 5850 5847 5845 5842 5839 5837 5834 5832 5829 5827 5824 5821 5819 5816 5814 5811 5808 5805 5802 5799 5796 5793 5789 5786 5783 5779 5775 5771 5767 5764 5760 5756 5753 5750
Wind_Speed
5 4 4 4 4 4 4 4 4 4 3 2 2 1 1 1 1 1 1 1 2 2 2 2 1 2 3 3 3 4 5 5 6 7 7 7 7 7 7 8 8 9 8
3 3 3 3 3 4 3 3 3 3 2 2 2 2 3 3 2 2 2 3 3 4 4 3 3 3 3 4 4 5 6 6 7 8 8 8 9 9 8 9 9 10 9
2 2 1 2 2 3 3 3 2 2 2 2 2 2 3 3 4 4 4 5 5 5 5 5 5 5 5 6 6 7 7 8 8 8 9 9 9 10 10 10 10 10 10
2 2 1 0 0 1 2 2 2 3 2 2 3 3 3 4 4 5 6 6 6 6 6 6 6 6 7 7 8 8 8 9 10 10 10 10 10 11 11 11 11 11 11
2 1 1 1 0 1 2 2 3 3 3 3 4 4 5 5 5 6 6 7 7 7 8 7 7 7 8 9 9 9 10 10 11 11 11 11 12 12 12 12 13 13 13
2 2 2 1 2 2 2 2 3 3 3 4 5 5 5 6 6 7 7 8 8 8 8 8 8 9 9 9 10 10 11 11 12 12 12 12 13 13 13 14 14 14 15
3 3 3 3 3 3 3 3 4 4 5 5 5 6 7 7 7 7 8 8 9 9 9 9 9 10 11 11 11 12 12 12 13 13 14 14 14 15 16 16 16 16 15
4 4 4 4 3 3 4 5 5 5 5 6 6 7 8 8 9 9 9 9 10 10 10 10 11 12 12 12 12 13 13 13 13 14 15 16 16 16 17 17 18 18 18
5 5 4 5 5 5 6 6 6 6 7 7 8 8 8 9 10 10 11 11 12 12 12 13 13 13 13 13 13 14 14 14 15 16 17 17 17 17 17 18 18 17 18
7 6 6 6 6 6 7 7 7 7 8 8 8 8 9 10 11 12 12 13 13 13 14 14 14 14 14 14 15 15 15 15 16 17 18 17 17 18 18 18 18 18 18
7 7 7 7 7 8 8 8 8 9 9 9 10 10 11 12 12 13 13 14 14 15 15 16 16 15 15 16 16 16 16 17 17 18 18 18 17 17 18 18 19 19 20
8 8 8 8 8 8 9 9 10 10 10 11 11 11 12 13 14 14 13 14 15 15 16 16 16 17 17 17 17 18 18 18 18 18 19 19 19 19 20 20 20 21 22
9 9 9 10 10 10 10 11 11 11 12 12 12 13 13 13 14 14 14 15 16 16 17 17 18 18 18 19 19 19 19 19 19 18 19 20 20 21 21 21 22 23 23
10 10 10 10 11 11 11 11 12 13 13 13 13 14 14 15 15 15 15 15 16 16 17 17 18 18 18 19 20 20 20 20 19 19 20 21 21 22 22 23 23 23 24
11 11 11 11 12 12 12 13 13 14 14 14 14 15 15 15 14 15 15 15 16 16 17 17 18 19 19 20 20 20 20 19 20 20 21 22 23 23 23 23 24 25 26
12 12 12 12 12 13 13 13 13 14 14 14 14 15 15 14 14 15 15 16 16 17 17 17 18 19 20 19 20 20 19 20 21 21 22 23 24 24 25 25 26 26 27
13 12 12 12 12 13 13 12 12 12 13 13 13 14 14 14 14 15 16 16 17 18 18 18 19 20 20 20 19 19 20 20 21 22 23 24 24 24 26 26 26 26 27
13 13 12 12 12 12 12 12 12 12 12 12 13 14 14 15 16 17 18 18 18 18 18 19 19 19 19 19 20 20 20 21 23 23 24 25 25 25 25 26 26 27 27
13 13 13 13 13 12 12 12 12 12 13 13 14 15 15 16 17 18 18 18 18 18 19 19 20 20 20 21 21 22 22 22 23 24 24 25 25 25 25 25 26 27 28
14 14 13 13 13 13 12 12 13 13 14 14 15 15 15 16 17 17 17 17 18 19 19 19 20 20 20 20 21 22 22 23 23 23 23 24 24 24 25 26 27 27 28
15 15 15 15 14 14 14 14 14 15 15 15 16 16 16 16 17 18 18 18 19 19 19 19 19 20 20 20 21 22 22 23 23 24 24 24 24 25 26 27 27 28 29
16 16 16 15 15 15 16 16 16 16 16 17 17 17 17 17 18 18 18 19 19 18 18 19 19 20 20 19 20 21 22 22 22 23 24 24 25 26 27 28 29 29 30
17 17 17 16 16 16 16 17 18 18 18 18 18 18 18 18 18 19 19 20 19 19 19 19 20 20 20 20 21 22 23 23 24 24 25 25 26 27 28 28 29 30 30
18 18 17 16 16 17 17 18 19 19 19 19 20 19 19 20 20 20 20 19 19 19 20 21 21 21 21 22 22 23 23 24 25 25 26 26 27 28 29 29 30 30 30
18 18 17 17 17 17 18 19 19 20 20 20 20 20 20 21 21 21 20 21 21 21 21 22 23 23 23 23 24 24 24 25 25 25 26 27 27 28 29 29 29 29 29
19 18 17 18 18 19 19 19 20 20 20 20 20 21 21 21 20 21 21 22 22 22 22 23 23 24 23 24 24 25 25 26 26 26 27 28 28 28 29 29 29 29 28
Wind_Direction
118 122 118 125 133 136 143 148 144 150 162 169 162 179 208 223 271 307 316 321 319 318 318 314 306 307 316 299 281 280 280 278 269 263 263 267 266 264 265 266 267 269 268
107 126 125 121 138 142 146 157 160 158 176 193 209 227 240 249 268 284 287 293 297 301 300 311 324 317 321 324 307 297 286 286 280 273 270 270 270 271 269 272 270 269 267
79 96 111 136 154 156 166 184 190 200 213 227 245 252 250 258 271 275 283 288 290 292 294 300 304 304 305 305 300 298 294 291 290 285 277 272 271 273 271 274 273 273 269
65 68 88 95 182 205 203 205 219 229 242 247 257 271 276 278 282 284 286 289 284 288 292 295 298 298 298 298 298 299 295 290 288 288 286 279 271 273 272 273 272 270 268
50 37 37 7 348 274 245 247 248 243 257 273 275 281 288 285 284 287 287 287 284 284 290 295 293 295 296 295 297 301 298 294 287 287 286 283 276 272 273 273 270 269 269
19 4 343 334 324 305 294 288 271 267 272 278 283 284 286 287 286 287 286 285 286 288 291 292 292 292 295 296 297 298 298 295 292 287 285 284 279 276 275 273 271 271 272
356 342 334 325 318 307 309 306 294 290 283 284 282 284 285 285 288 290 288 285 286 288 290 291 292 293 293 294 294 295 294 294 291 289 285 283 283 278 277 277 274 274 274
336 325 313 309 307 304 308 305 295 287 287 287 286 286 286 284 286 289 290 288 285 285 286 287 290 291 292 292 292 291 291 291 289 290 288 286 285 281 277 276 277 278 277
327 322 311 301 302 299 302 301 297 289 289 291 289 288 288 285 285 287 288 287 286 285 285 284 287 286 285 286 289 289 291 291 290 291 289 288 287 285 282 281 281 282 281
319 313 311 299 298 298 299 297 298 291 291 293 292 291 291 291 289 289 286 286 286 286 287 286 288 287 285 286 289 290 292 293 293 292 291 290 287 286 285 283 286 285 282
324 318 310 304 303 300 299 300 295 296 295 294 292 291 290 290 290 291 288 288 289 287 286 286 287 286 286 286 288 291 289 291 293 292 293 293 291 288 287 284 287 286 283
329 322 312 307 308 306 302 297 294 294 294 296 295 293 292 293 291 290 289 290 290 291 288 288 287 287 286 287 290 292 290 290 290 291 292 291 291 289 288 287 288 288 288
326 320 314 308 308 310 307 301 298 295 294 293 294 294 295 297 295 293 293 291 291 293 293 290 288 287 287 287 289 291 291 291 289 288 290 291 290 292 292 289 289 288 289
328 322 316 309 307 306 305 302 298 295 293 292 293 294 297 298 297 295 294 293 292 295 296 295 292 290 289 288 288 289 291 291 290 288 289 291 291 293 293 292 291 290 290
329 324 320 314 309 306 303 299 297 296 294 293 293 294 296 297 297 297 296 295 296 298 298 297 295 292 290 290 289 289 289 290 291 291 292 293 292 292 292 292 291 292 292
331 325 320 316 311 307 303 301 300 299 298 297 296 297 297 298 298 297 297 298 298 300 299 296 295 293 293 293 295 293 292 292 294 295 295 295 294 294 292 292 292 292 292
335 332 328 324 317 309 304 301 302 304 302 300 298 298 299 299 301 300 300 302 301 301 299 298 298 300 299 296 296 295 293 293 294 295 296 296 296 295 295 294 292 293 293
338 338 335 331 330 325 315 309 310 308 307 305 303 302 301 301 301 300 299 301 301 301 300 299 302 303 301 296 294 294 294 295 295 294 295 296 296 297 296 294 293 293 294
334 335 334 332 331 329 323 316 312 310 309 306 304 303 302 302 302 300 299 299 300 300 300 301 301 300 299 296 296 295 294 296 296 295 296 297 298 298 298 297 297 296 296
330 330 330 329 327 326 324 320 316 314 313 311 307 307 308 307 308 307 304 302 303 303 302 300 300 299 298 297 297 298 298 299 299 299 300 300 300 300 301 300 300 299 298
326 326 324 323 323 322 320 318 315 313 313 312 311 309 309 306 306 307 307 305 304 305 304 303 302 301 300 299 298 300 300 299 300 300 301 301 301 302 302 301 301 300 299
322 323 322 320 319 319 318 316 314 313 312 311 310 309 306 304 304 304 305 305 305 305 303 304 305 303 303 302 301 302 303 302 301 300 300 299 299 300 301 300 300 299 299
319 318 317 317 316 316 317 317 314 312 311 310 310 308 305 304 304 305 306 305 303 303 303 305 306 305 305 303 303 303 302 302 302 301 300 300 300 300 300 300 300 300 299
316 315 313 313 315 315 315 315 313 312 310 310 310 308 308 307 307 306 305 304 304 303 304 304 305 305 304 303 302 303 303 303 303 304 303 302 302 302 303 303 303 304 303
312 312 311 312 314 313 311 310 311 311 310 310 310 308 307 308 306 305 305 304 303 303 303 303 303 304 303 303 303 304 304 303 304 304 304 305 304 304 304 304 304 303 302
307 307 309 311 313 312 310 309 308 308 308 308 308 308 308 307 307 306 306 305 304 303 302 302 303 304 303 303 304 305 304 303 303 303 304 304 305 305 305 305 304 302 301